Wind_Speed
42 43 39 36 36 35 32 32 32 32 32 32 34 36 35 31 27 26 27 27 25 26 28 29 28 30 31 33 32 32 30 29 26 27 26 28 27 28 30 32 30 27 28
46 44 44 42 40 41 39 37 35 34 35 32 34 33 32 30 28 28 28 29 27 27 27 28 31 32 31 31 30 29 27 28 29 28 27 28 28 27 28 29 29 32 32
52 49 45 48 44 43 44 43 41 39 39 38 36 37 37 35 35 33 34 33 33 32 31 30 31 30 30 31 31 29 29 29 31 28 30 30 30 28 31 30 32 34 35
57 52 52 51 52 48 46 46 47 41 40 40 39 39 40 40 40 39 40 40 39 39 39 37 34 33 32 32 31 33 33 31 32 29 33 35 36 34 34 34 35 37 35
60 59 59 57 56 55 55 51 50 47 45 47 45 44 43 43 43 43 43 44 43 43 42 41 40 40 40 36 33 33 35 33 34 36 37 39 40 39 38 37 32 33 37
64 63 63 62 62 61 60 56 55 50 48 49 52 50 49 49 48 47 48 47 48 47 46 45 44 43 42 42 40 40 38 39 39 39 43 44 44 43 43 36 37 36 36
60 61 62 63 64 63 62 60 58 57 53 53 54 58 57 55 53 53 53 54 53 51 50 48 46 46 47 46 45 44 45 44 43 43 43 47 45 46 46 38 38 38 36
63 63 60 60 59 59 58 58 58 60 60 58 60 62 62 62 61 59 58 57 57 58 57 55 54 51 50 50 49 49 47 48 48 49 49 49 48 48 48 46 42 37 37
66 63 63 63 63 65 63 62 61 62 64 65 64 63 64 66 66 64 65 63 61 62 62 61 60 59 56 54 52 51 52 50 50 50 51 50 49 49 47 48 41 42 38
70 70 69 67 68 69 68 68 69 69 69 69 68 68 68 69 71 70 68 68 68 67 65 66 66 66 63 58 56 56 54 53 50 52 51 52 48 49 47 44 41 41 35
76 75 74 73 72 71 72 72 72 73 73 74 74 75 74 73 73 73 73 73 74 72 71 70 70 70 68 65 62 60 59 55 56 52 52 51 49 47 41 42 41 36 34
79 78 79 79 78 77 76 76 77 77 78 78 78 78 78 78 78 76 76 75 77 77 76 75 74 73 71 68 66 64 62 61 59 54 53 49 50 46 42 42 38 35 35
82 81 80 80 80 81 82 82 83 83 83 82 82 83 82 82 81 81 80 78 78 78 77 78 78 75 73 71 69 66 64 63 61 56 52 47 46 41 40 39 37 39 39
88 87 86 86 86 86 86 87 88 89 88 88 88 89 88 88 87 87 86 85 83 82 80 80 78 77 74 71 70 66 65 64 63 60 56 52 47 44 43 39 36 36 36
89 89 89 90 90 90 89 89 90 91 92 91 93 93 93 93 93 92 91 91 89 88 86 85 84 83 80 76 74 71 69 67 65 62 61 56 50 47 44 41 38 38 35
73 80 86 90 91 91 93 95 94 95 95 95 95 96 96 96 97 98 97 97 96 94 92 91 90 88 85 83 78 75 73 72 67 64 64 60 54 51 47 44 41 40 37
57 61 65 70 77 83 87 91 94 96 99 100 99 99 100 100 101 101 101 100 100 99 98 96 96 95 93 91 86 82 78 76 72 70 67 63 58 56 52 47 46 42 38
63 64 65 67 69 72 76 80 85 89 92 95 98 101 104 106 106 106 105 104 105 104 103 102 100 101 99 97 95 90 88 83 79 76 72 67 62 59 55 52 51 48 41
66 68 69 72 74 76 78 80 82 84 86 89 93 96 99 103 106 108 109 109 111 110 110 108 106 103 103 102 101 97 94 90 85 82 80 77 71 68 64 60 57 54 47
72 73 75 76 78 79 81 84 86 88 90 91 92 94 97 98 99 101 104 106 108 112 115 115 114 111 108 105 102 101 97 94 90 86 82 79 77 73 70 66 62 59 54
72 74 76 77 79 81 83 84 86 89 92 94 97 99 102 105 107 106 105 107 107 108 109 111 113 115 116 115 109 107 103 98 95 90 88 86 83 77 75 70 66 60 57
74 76 78 80 81 82 85 87 89 90 95 97 101 104 107 108 109 111 113 115 117 116 114 113 112 111 110 114 116 115 112 107 103 100 94 92 87 83 79 75 72 68 64
75 77 78 80 82 83 86 88 90 93 97 100 104 108 111 114 117 118 119 120 120 121 123 123 120 116 114 114 112 113 114 113 111 106 102 97 91 86 83 82 78 74 70
74 75 77 80 82 85 88 90 92 95 99 102 105 110 115 120 122 123 126 129 131 130 130 129 126 124 121 119 118 113 111 109 108 112 111 104 99 93 91 88 84 80 76
77 79 81 82 83 85 86 88 90 93 96 98 100 104 107 112 117 121 126 132 138 140 140 138 135 131 127 124 123 123 115 110 106 102 105 108 109 107 100 96 90 86 82
80 83 84 86 88 91 92 93 95 97 98 99 102 105 111 116 121 127 133 139 143 143 141 141 140 138 133 130 129 126 123 118 110 106 101 102 102 102 101 100 96 91 87
Wind_Direction
241 242 243 246 246 244 242 246 245 245 246 246 248 247 249 252 255 255 263 264 268 269 262 259 255 262 269 268 266 270 271 269 269 274 280 283 285 287 281 281 281 287 283
243 243 242 244 251 247 241 240 244 248 249 249 247 246 250 254 249 259 260 263 263 268 271 261 262 264 267 267 269 270 270 269 268 272 274 278 282 281 277 279 282 283 288
245 244 246 246 250 252 246 242 245 248 249 249 248 247 248 248 249 255 260 264 264 271 273 263 263 265 265 267 270 269 272 275 268 268 276 280 284 284 285 288 290 287 284
245 245 248 249 252 253 253 243 241 246 243 244 246 249 249 251 254 257 259 261 262 263 269 270 267 268 272 279 273 272 277 274 268 268 274 280 284 285 289 291 294 292 290
249 250 249 249 251 252 254 253 244 244 241 240 243 248 250 249 251 254 256 257 260 262 262 265 263 265 266 271 273 277 278 278 284 275 275 278 282 287 287 293 297 296 292
250 252 250 250 251 253 255 254 249 244 246 247 245 247 250 251 250 250 254 256 258 259 260 260 262 264 265 267 270 273 276 271 281 280 278 283 284 285 285 289 296 299 297
247 248 250 251 252 251 251 252 250 246 246 250 250 248 248 250 254 254 255 256 259 257 257 258 258 265 267 267 266 269 269 271 273 275 274 278 281 285 285 286 296 300 299
248 247 248 250 250 249 248 248 247 248 249 251 251 249 248 251 252 253 253 254 258 260 259 259 259 262 261 264 267 267 269 268 269 274 275 276 280 283 288 291 291 295 299
254 254 253 252 254 254 253 251 251 249 250 251 252 252 251 251 252 254 254 254 254 256 259 260 261 263 265 264 264 265 267 269 268 270 273 276 280 281 286 295 290 295 298
251 253 254 254 253 254 254 254 255 255 253 252 253 254 253 252 252 253 254 254 255 255 255 257 261 262 263 264 263 266 266 266 269 267 272 273 278 281 286 289 293 298 294
252 252 253 253 253 254 255 255 255 255 254 256 256 255 254 254 253 254 254 254 254 254 255 256 257 259 262 263 265 266 266 266 265 267 269 271 276 279 284 288 293 293 293
252 253 252 252 254 254 253 253 253 252 253 254 255 255 255 254 253 253 254 255 255 255 255 256 257 257 259 261 262 264 265 265 266 268 267 269 271 277 280 286 289 289 296
250 250 250 250 250 250 250 251 251 251 251 251 253 254 255 255 255 254 254 254 256 256 256 257 257 256 258 260 260 262 262 263 265 265 266 267 267 272 273 280 281 286 288
248 249 249 249 249 249 250 249 250 250 250 251 251 252 253 254 255 254 254 253 253 255 256 257 258 259 258 258 258 259 260 261 262 262 260 261 263 266 266 271 277 281 281
249 250 251 252 252 251 251 250 250 251 251 252 252 252 252 253 254 254 254 254 254 255 255 256 256 257 256 255 257 258 258 260 260 259 259 259 259 261 263 267 270 275 276
256 257 257 256 255 256 256 254 253 253 253 254 255 255 254 254 254 254 253 254 254 254 254 255 255 255 256 256 255 256 256 257 258 258 258 258 257 256 260 262 265 268 268
257 256 255 255 257 258 260 260 259 259 257 256 256 257 256 256 255 254 254 254 254 254 254 253 254 255 255 255 254 253 253 255 256 256 256 257 257 258 259 260 261 263 262
257 257 257 257 257 257 258 258 260 261 262 262 262 261 260 259 259 259 257 256 255 254 253 253 252 253 254 254 253 252 252 252 254 254 255 255 254 255 258 258 261 259 257
256 257 257 257 257 257 257 258 258 258 259 259 260 261 261 261 261 261 261 260 258 256 256 254 253 251 252 252 253 253 252 252 252 252 253 254 254 256 258 257 259 257 256
261 261 261 262 262 262 262 261 261 260 261 260 260 260 259 259 258 258 258 258 259 259 258 257 255 254 253 251 252 252 252 251 251 250 251 252 253 253 254 256 256 254 255
265 265 266 266 266 266 266 266 265 264 263 262 261 261 261 260 258 257 256 255 255 255 255 256 256 255 255 252 250 250 250 250 250 250 248 250 251 251 252 252 253 251 253
267 267 267 267 268 268 267 267 268 268 268 268 268 266 264 263 262 261 259 258 256 253 253 253 253 253 253 253 251 249 249 249 247 248 248 247 248 248 249 250 251 250 251
269 268 268 267 267 267 267 268 268 268 268 269 269 269 269 268 266 264 263 262 260 258 255 252 251 251 251 252 250 251 248 248 248 247 248 247 245 246 247 248 248 249 251
267 268 268 269 268 268 269 269 270 271 271 271 272 271 270 268 267 266 265 264 262 260 258 256 252 250 250 250 252 250 249 247 248 248 246 246 245 244 245 246 247 247 248
271 271 270 270 270 271 271 272 273 274 273 273 273 273 273 272 270 268 265 263 261 260 258 257 255 251 249 246 247 250 248 247 247 247 248 245 244 245 244 244 244 245 246
273 275 275 274 274 273 273 275 275 275 276 276 275 276 274 271 269 267 265 262 262 261 260 259 257 254 251 247 245 245 246 246 244 244 245 246 245 245 243 242 243 243 243
Height
10872 10874 10877 10880 10883 10886 10888 10889 10890 10892 10894 10896 10898 10901 10903 10904 10906 10907 10907 10907 10907 10907 10907 10908 10911 10912 10912 10915 10915 10916 10915 10915 10916 10917 10917 10917 10917 10918 10918 10918 10917 10917 10918
10866 10868 10871 10874 10877 10880 10882 10884 10885 10887 10889 10892 10894 10896 10898 10900 10901 10902 10904 10904 10904 10904 10905 10905 10906 10908 10908 10908 10909 10910 10911 10911 10913 10913 10913 10914 10915 10915 10915 10914 10914 10913 10911
10859 10862 10864 10867 10870 10872 10876 10878 10880 10881 10884 10886 10888 10891 10892 10893 10895 10897 10898 10899 10900 10900 10901 10902 10903 10905 10905 10905 10906 10906 10907 10906 10909 10908 10908 10907 10910 10911 10910 10910 10909 10907 10905
10851 10854 10857 10860 10862 10865 10868 10871 10873 10875 10877 10879 10881 10883 10885 10888 10889 10891 10892 10892 10894 10896 10896 10897 10899 10900 10900 10899 10900 10901 10901 10902 10903 10904 10903 10902 10904 10903 10905 10903 10903 10901 10899
10842 10845 10849 10852 10854 10856 10860 10863 10866 10868 10869 10871 10872 10875 10878 10879 10881 10883 10884 10886 10887 10889 10890 10890 10892 10893 10893 10894 10895 10895 10897 10896 10898 10898 10898 10897 10899 10897 10899 10898 10896 10894 10893
10835 10837 10839 10842 10845 10848 10850 10854 10857 10859 10861 10862 10864 10866 10869 10871 10873 10874 10875 10877 10878 10880 10882 10884 10885 10885 10887 10888 10888 10888 10890 10891 10892 10892 10892 10891 10890 10891 10891 10891 10891 10889 10887
10825 10827 10830 10832 10834 10837 10841 10843 10846 10849 10851 10852 10854 10857 10859 10861 10863 10865 10866 10868 10870 10871 10872 10875 10877 10878 10879 10880 10881 10882 10883 10885 10886 10886 10886 10884 10885 10884 10886 10886 10886 10884 10880
10815 10817 10820 10822 10824 10827 10830 10833 10835 10838 10840 10841 10843 10845 10847 10849 10852 10855 10857 10858 10861 10862 10864 10866 10868 10869 10871 10872 10873 10874 10876 10877 10879 10879 10878 10878 10879 10878 10878 10878 10879 10877 10875
10803 10805 10808 10811 10813 10816 10818 10821 10824 10826 10828 10829 10831 10834 10835 10837 10840 10843 10845 10847 10848 10850 10853 10856 10857 10859 10862 10864 10865 10865 10867 10869 10871 10871 10870 10872 10873 10872 10872 10871 10872 10870 10868
10792 10794 10797 10799 10801 10804 10806 10809 10812 10813 10815 10817 10819 10821 10822 10824 10826 10830 10833 10834 10835 10838 10842 10844 10846 10848 10851 10853 10855 10855 10857 10860 10861 10862 10863 10864 10866 10865 10866 10865 10864 10863 10863
10779 10781 10784 10786 10787 10790 10793 10796 10798 10800 10802 10803 10805 10807 10808 10811 10812 10816 10819 10821 10823 10825 10829 10830 10833 10837 10839 10843 10844 10846 10847 10850 10851 10853 10854 10855 10858 10857 10859 10858 10858 10857 10856
10764 10767 10769 10771 10773 10775 10777 10779 10782 10784 10786 10789 10790 10792 10794 10796 10798 10801 10805 10807 10809 10812 10815 10817 10819 10823 10827 10831 10833 10835 10837 10839 10841 10844 10845 10847 10849 10850 10853 10851 10851 10849 10848
10748 10751 10753 10754 10756 10758 10760 10762 10764 10766 10768 10771 10773 10774 10777 10780 10783 10785 10789 10793 10794 10796 10800 10803 10805 10809 10813 10817 10820 10824 10826 10828 10830 10833 10835 10838 10840 10843 10845 10845 10845 10843 10842
10731 10733 10735 10736 10738 10740 10741 10744 10746 10748 10750 10752 10755 10756 10759 10762 10765 10767 10770 10774 10777 10780 10784 10786 10790 10793 10799 10804 10807 10811 10814 10815 10819 10821 10823 10828 10832 10833 10835 10837 10838 10836 10835
10714 10716 10718 10719 10721 10723 10724 10726 10728 10730 10732 10734 10736 10738 10741 10744 10746 10748 10751 10755 10759 10762 10766 10768 10771 10775 10781 10789 10793 10798 10801 10804 10806 10809 10812 10817 10822 10824 10826 10828 10829 10829 10829
10699 10700 10701 10702 10703 10705 10707 10708 10709 10711 10713 10715 10717 10719 10722 10724 10726 10729 10731 10735 10739 10742 10747 10750 10752 10756 10762 10769 10777 10783 10787 10790 10794 10798 10800 10805 10811 10813 10815 10818 10820 10821 10822
10685 10685 10685 10685 10686 10687 10687 10688 10690 10691 10693 10695 10697 10699 10701 10703 10706 10708 10710 10714 10718 10722 10725 10730 10733 10737 10743 10749 10758 10765 10770 10775 10780 10785 10787 10793 10799 10801 10804 10808 10810 10812 10813
10672 10671 10671 10671 10670 10670 10671 10671 10672 10672 10673 10673 10675 10677 10680 10682 10684 10685 10688 10692 10695 10697 10702 10707 10712 10716 10722 10728 10736 10744 10750 10757 10764 10769 10774 10779 10784 10788 10791 10797 10800 10803 10805
10657 10656 10656 10655 10655 10655 10655 10654 10654 10653 10653 10653 10653 10654 10655 10657 10660 10661 10663 10666 10670 10673 10676 10683 10687 10695 10699 10705 10711 10722 10730 10738 10745 10751 10757 10762 10769 10774 10778 10785 10789 10791 10795
10641 10640 10640 10639 10638 10637 10636 10635 10634 10634 10633 10632 10632 10631 10631 10632 10634 10636 10637 10639 10642 10644 10650 10656 10662 10669 10676 10681 10690 10696 10708 10716 10725 10733 10739 10744 10752 10758 10764 10769 10775 10779 10781
10623 10622 10621 10619 10618 10616 10615 10613 10611 10609 10608 10607 10605 10605 10606 10607 10607 10608 10608 10610 10615 10617 10618 10624 10633 10642 10648 10655 10665 10672 10683 10693 10704 10712 10718 10725 10733 10742 10746 10753 10759 10765 10769
10607 10604 10602 10600 10598 10596 10594 10592 10589 10587 10585 10583 10579 10578 10579 10578 10580 10581 10581 10582 10586 10589 10591 10596 10603 10612 10620 10622 10636 10647 10658 10668 10679 10686 10695 10704 10713 10724 10729 10736 10743 10749 10755
10587 10585 10583 10579 10577 10575 10572 10570 10568 10565 10561 10558 10554 10550 10548 10548 10547 10550 10552 10552 10552 10556 10559 10567 10574 10582 10591 10590 10603 10616 10630 10642 10648 10662 10671 10681 10693 10704 10711 10718 10726 10733 10739
10567 10565 10562 10559 10556 10553 10550 10547 10545 10541 10536 10533 10527 10522 10516 10513 10513 10514 10515 10514 10514 10518 10522 10528 10540 10553 10564 10569 10572 10587 10600 10616 10622 10632 10645 10657 10670 10682 10691 10698 10707 10716 10722
10547 10543 10539 10535 10533 10529 10525 10523 10519 10513 10508 10503 10497 10489 10483 10477 10476 10474 10472 10470 10469 10474 10479 10486 10497 10514 10529 10540 10543 10551 10571 10586 10599 10608 10614 10629 10643 10654 10669 10677 10687 10696 10705
10524 10519 10515 10512 10508 10503 10500 10496 10490 10485 10479 10472 10465 10458 10449 10440 10431 10426 10422 10416 10416 10423 10434 10442 10452 10467 10484 10504 10512 10522 10538 10553 10572 10582 10593 10600 10614 10628 10644 10657 10665 10677 10686